Weather History for Indianapolis, IN

Change the Weather History Date:

Sunday, June 30, 2013

  Actual Average (KEYE) Record (KEYE)
Temperature  
Mean Temperature 68 °F 75 °F  
Max Temperature 73 °F 84 °F 93 °F (2012)
Min Temperature 63 °F 67 °F 56 °F (2010)
Degree Days  
Heating Degree Days 0 0  
Month to date heating degree days 12  
Since 1 June heating degree days 14  
Since 1 July heating degree days 5348  
Cooling Degree Days 3 10  
Month to date cooling degree days 234  
Year to date cooling degree days 318  
Since 1 June cooling degree days 234  
Growing Degree Days 18 (Base 50)    
Moisture  
Dew Point 61 °F    
Average Humidity 80    
Maximum Humidity 89    
Minimum Humidity 68    
Precipitation  
Precipitation 0.07 in 0.12 in 0.32 in (1993)
Month to date precipitation 4.39  
Year to date precipitation 21.20  
Sea Level Pressure  
Sea Level Pressure 29.80 in    
Wind  
Wind Speed 6 mph (NNE)    
Max Wind Speed 16 mph    
Max Gust Speed 23 mph    
Visibility 9 miles    
Events Rain , Thunderstorm    
T = Trace of Precipitation, MM = Missing Value Source: NWS Daily Summary

Daily Weather History Graph

Daily Weather History Graph

Search for Another Location

Airport:

Trip Planner

Search our weather history database for the weather conditions in past years. The results will help you decide how hot, cold, wet, or windy it might be!

Date:

Astronomy

Jun. 30, 2013 Rise Set
Actual Time 6:19 AM EDT 9:17 PM EDT
Civil Twilight 5:46 AM EDT 9:50 PM EDT
Nautical Twilight 5:05 AM EDT 10:32 PM EDT
Astronomical Twilight 4:16 AM EDT 11:20 PM EDT
Moon 1:17 AM EDT 2:32 PM EDT
Length of Visible Light 16h 03m
Length of Day
14h 58m
Last Quarter, 45% of the Moon is Illuminated
Jun 30
Last Quarter
Jul 8
New
Jul 15
First Quarter
Jul 22
Full
Jul 29
Last Quarter

Hourly Weather History & Observations

Time (EDT) Temp. Dew Point Humidity Pressure Visibility Wind Dir Wind Speed Gust Speed Precip Events Conditions
12:15 AM 65.3 °F 61.2 °F 86% 29.70 in 10.0 mi NNW 3.5 mph - N/A   Overcast
12:35 AM 64.9 °F 61.2 °F 88% 29.71 in 10.0 mi North 3.5 mph - N/A   Mostly Cloudy
12:55 AM 64.8 °F 61.2 °F 88% 29.71 in 10.0 mi North 3.5 mph - N/A   Overcast
1:15 AM 64.8 °F 61.2 °F 88% 29.71 in 10.0 mi North 3.5 mph - N/A   Overcast
1:35 AM 64.8 °F 61.2 °F 88% 29.71 in 10.0 mi North 3.5 mph - N/A   Overcast
1:55 AM 64.8 °F 61.2 °F 88% 29.71 in 7.0 mi NNW 4.6 mph - N/A   Overcast
2:15 AM 64.8 °F 61.3 °F 89% 29.72 in 7.0 mi Calm Calm - N/A   Overcast
2:35 AM 64.9 °F 61.7 °F 89% 29.72 in 7.0 mi North 3.5 mph - N/A   Overcast
2:55 AM 64.9 °F 61.7 °F 89% 29.71 in 7.0 mi North 3.5 mph - N/A   Overcast
3:15 AM 64.9 °F 61.7 °F 89% 29.71 in 7.0 mi North 4.6 mph - N/A   Overcast
3:35 AM 64.9 °F 61.7 °F 89% 29.71 in 7.0 mi Calm Calm - N/A   Overcast
3:55 AM 65.3 °F 61.7 °F 88% 29.71 in 7.0 mi NNE 3.5 mph - N/A   Overcast
4:15 AM 65.3 °F 62.1 °F 89% 29.71 in 7.0 mi NE 4.6 mph - N/A   Overcast
4:35 AM 65.3 °F 61.7 °F 88% 29.71 in 7.0 mi NNE 6.9 mph - N/A Thunderstorm Overcast
4:55 AM 65.3 °F 61.9 °F 89% 29.71 in 7.0 mi NE 5.8 mph - N/A   Overcast
5:15 AM 65.5 °F 61.9 °F 88% 29.72 in 7.0 mi NNE 6.9 mph - N/A   Overcast
5:35 AM 65.5 °F 61.7 °F 88% 29.72 in 7.0 mi North 4.6 mph - N/A   Overcast
5:55 AM 65.3 °F 61.7 °F 88% 29.73 in 7.0 mi NE 4.6 mph - N/A   Overcast
6:15 AM 65.5 °F 61.7 °F 88% 29.73 in 5.0 mi North 4.6 mph - N/A Thunderstorm Overcast
6:35 AM 65.7 °F 61.7 °F 87% 29.74 in 5.0 mi NNE 5.8 mph - N/A   Overcast
6:55 AM 65.7 °F 61.7 °F 87% 29.74 in 5.0 mi NNE 3.5 mph - N/A   Overcast
7:15 AM 65.8 °F 61.9 °F 87% 29.75 in 7.0 mi NE 6.9 mph - N/A   Overcast
7:35 AM 65.7 °F 61.5 °F 86% 29.76 in 10.0 mi NE 5.8 mph - N/A   Overcast
7:55 AM 65.5 °F 60.8 °F 85% 29.76 in 10.0 mi ENE 8.1 mph - N/A Rain Light Rain
8:15 AM 64.9 °F 60.3 °F 85% 29.76 in 10.0 mi ENE 5.8 mph - N/A Rain Light Rain
8:35 AM 64.9 °F 60.8 °F 86% 29.77 in 10.0 mi NE 3.5 mph - N/A Rain Light Rain
8:55 AM 64.8 °F 60.8 °F 87% 29.77 in 10.0 mi NNE 8.1 mph - 0.01 in Rain Light Rain
9:15 AM 64.0 °F 59.9 °F 86% 29.79 in 10.0 mi NNE 6.9 mph - 0.02 in Rain Light Rain
9:35 AM 63.7 °F 59.9 °F 87% 29.79 in 7.0 mi NNE 5.8 mph - 0.04 in Rain Light Rain
9:55 AM 63.7 °F 59.9 °F 87% 29.79 in 10.0 mi NNE 4.6 mph - 0.05 in Rain Light Rain
10:15 AM 64.0 °F 60.1 °F 87% 29.80 in 10.0 mi North 4.6 mph - N/A Rain Rain
10:35 AM 64.8 °F 60.8 °F 87% 29.80 in 10.0 mi NNE 5.8 mph - 0.01 in Rain Rain
10:55 AM 66.0 °F 61.7 °F 86% 29.81 in 10.0 mi NNE 4.6 mph - 0.01 in   Overcast
11:15 AM 67.3 °F 62.1 °F 83% 29.81 in 10.0 mi NE 5.8 mph - N/A   Overcast
11:35 AM 67.6 °F 61.5 °F 81% 29.81 in 10.0 mi NE 11.5 mph - N/A   Overcast
11:55 AM 68.9 °F 62.1 °F 79% 29.81 in 10.0 mi NE 10.4 mph - N/A   Overcast
12:15 PM 68.9 °F 61.7 °F 78% 29.81 in 10.0 mi NE 9.2 mph - N/A   Overcast
12:35 PM 68.9 °F 61.7 °F 78% 29.82 in 10.0 mi NNE 6.9 mph - N/A   Overcast
12:55 PM 70.0 °F 61.7 °F 75% 29.82 in 10.0 mi NNE 12.7 mph - N/A   Overcast
1:15 PM 67.5 °F 62.2 °F 83% 29.82 in 10.0 mi NNE 11.5 mph 16.1 mph N/A   Light Drizzle
1:35 PM 66.9 °F 61.9 °F 84% 29.83 in 7.0 mi NNE 8.1 mph - N/A   Light Drizzle
1:55 PM 67.1 °F 62.1 °F 84% 29.83 in 10.0 mi NNE 10.4 mph - N/A Rain Light Rain
2:15 PM 68.9 °F 62.8 °F 81% 29.82 in 10.0 mi NNE 9.2 mph - N/A   Overcast
2:35 PM 72.0 °F 63.0 °F 73% 29.82 in 10.0 mi NNE 9.2 mph - N/A   Mostly Cloudy
2:55 PM 71.1 °F 62.2 °F 74% 29.81 in 10.0 mi NNE 13.8 mph 19.6 mph N/A   Mostly Cloudy
3:35 PM 71.8 °F 61.9 °F 71% 29.82 in 10.0 mi NE 11.5 mph 17.3 mph N/A   Overcast
3:55 PM 72.0 °F 61.9 °F 70% 29.83 in 10.0 mi ENE 12.7 mph - N/A   Mostly Cloudy
4:15 PM 72.1 °F 61.9 °F 70% 29.83 in 10.0 mi NNE 16.1 mph 23.0 mph N/A   Mostly Cloudy
4:35 PM 71.6 °F 61.5 °F 70% 29.83 in 10.0 mi NNE 15.0 mph - N/A   Overcast
4:55 PM 72.3 °F 61.5 °F 69% 29.83 in 10.0 mi NE 12.7 mph 20.7 mph N/A   Overcast
5:35 PM 73.0 °F 61.9 °F 68% 29.83 in 10.0 mi NE 10.4 mph - N/A   Overcast
5:55 PM 71.8 °F 61.9 °F 71% 29.83 in 10.0 mi ENE 12.7 mph 17.3 mph N/A   Overcast
6:15 PM 71.6 °F 61.7 °F 71% 29.84 in 10.0 mi NE 13.8 mph - N/A   Light Drizzle
6:35 PM 71.8 °F 62.1 °F 71% 29.85 in 10.0 mi ENE 12.7 mph - N/A   Overcast
6:55 PM 70.2 °F 62.6 °F 77% 29.85 in 10.0 mi NE 8.1 mph - N/A   Overcast
7:15 PM 70.3 °F 62.6 °F 76% 29.85 in 10.0 mi NE 9.2 mph - N/A   Scattered Clouds
7:35 PM 70.7 °F 61.7 °F 73% 29.86 in 10.0 mi NNE 8.1 mph - N/A   Scattered Clouds
7:55 PM 70.7 °F 60.3 °F 69% 29.87 in 10.0 mi NNE 13.8 mph 19.6 mph N/A   Mostly Cloudy
8:15 PM 70.0 °F 59.9 °F 70% 29.87 in 10.0 mi NNE 12.7 mph 18.4 mph N/A   Overcast
8:35 PM 69.4 °F 59.2 °F 70% 29.87 in 10.0 mi NNE 11.5 mph 17.3 mph N/A   Overcast
8:55 PM 68.9 °F 59.2 °F 71% 29.88 in 10.0 mi NNE 10.4 mph - N/A   Mostly Cloudy
9:15 PM 68.9 °F 59.2 °F 71% 29.88 in 10.0 mi NNE 8.1 mph - N/A   Overcast
9:35 PM 68.5 °F 59.5 °F 73% 29.89 in 10.0 mi NNE 5.8 mph - N/A   Overcast
9:55 PM 68.2 °F 59.9 °F 75% 29.89 in 10.0 mi NNE 5.8 mph - N/A   Overcast
10:15 PM 68.0 °F 59.9 °F 75% 29.89 in 10.0 mi NNE 5.8 mph - N/A   Light Drizzle
10:35 PM 68.2 °F 59.4 °F 73% 29.89 in 10.0 mi NNE 6.9 mph - N/A Rain Light Rain
10:55 PM 68.4 °F 59.0 °F 72% 29.90 in 10.0 mi NE 8.1 mph - N/A   Overcast
11:15 PM 68.2 °F 58.6 °F 71% 29.90 in 10.0 mi NE 5.8 mph - N/A   Mostly Cloudy
11:35 PM 68.2 °F 58.5 °F 71% 29.91 in 10.0 mi NNE 6.9 mph - N/A   Mostly Cloudy
11:55 PM 68.2 °F 58.5 °F 71% 29.91 in 10.0 mi NE 8.1 mph - N/A   Overcast